Richmond, VA

8:28 AM EDT on June 22, 2017 (GMT -0400)
Richmond International

Weather History for KRIC - March, 2012

Change the Weather History Date:

Wednesday, March 28, 2012

  Actual Average Record
Temperature  
Mean Temperature 62 °F 52 °F  
Max Temperature 83 °F 64 °F 91 °F (1907)
Min Temperature 41 °F 41 °F 23 °F (2001)
Degree Days  
Heating Degree Days 3 13  
Month to date heating degree days 218 478  
Since 1 July heating degree days 2608 3414  
Cooling Degree Days 0 0  
Month to date cooling degree days 33 0  
Year to date cooling degree days 33 0  
Growing Degree Days 12 (Base 50)    
Moisture  
Dew Point 46 °F    
Average Humidity 62    
Maximum Humidity 90    
Minimum Humidity 33    
Precipitation  
Precipitation 0.12 in 0.13 in 2.04 in (1942)
Month to date precipitation 2.48 3.64  
Year to date precipitation 7.43 9.44  
Snow  
Snow 0.00 in 0.00 in 0.60 in (1947)
Month to date snowfall 0.5 0.6  
Since 1 July snowfall 4.5 10.2  
Snow Depth 0.00 in    
Sea Level Pressure  
Sea Level Pressure 29.93 in    
Wind  
Wind Speed 12 mph (SSW)    
Max Wind Speed 39 mph    
Max Gust Speed 51 mph    
Visibility 10 miles    
Events Rain , Thunderstorm    
T = Trace of Precipitation, MM = Missing Value Source: NWS Daily Summary

Daily Weather History Graph

Daily Weather History Graph

Search for Another Location

Airport or City:

Trip Planner

Search our weather history database for the weather conditions in past years. The results will help you decide how hot, cold, wet, or windy it might be!

Date:

Astronomy

Mar. 28, 2012 Rise Set
Actual Time 7:00 AM EDT 7:28 PM EDT
Civil Twilight 6:33 AM EDT 7:55 PM EDT
Nautical Twilight 6:03 AM EDT 8:26 PM EDT
Astronomical Twilight 5:31 AM EDT 8:57 PM EDT
Moon 10:21 AM EDT (3/28) 12:23 AM EDT (3/28)
Length of Visible Light 13h 21m
Length of Day
12h 28m
Waxing Crescent, 30% of the Moon is Illuminated
Mar 28
Waxing Crescent
Mar 30
First Quarter
Apr 6
Full
Apr 13
Last Quarter
Apr 21
New

Hourly Weather History & Observations

Time (EDT) Temp. Windchill Dew Point Humidity Pressure Visibility Wind Dir Wind Speed Gust Speed Precip Events Conditions
12:54 AM 43.0 °F 41.3 °F 30.0 °F 60% 30.25 in 10.0 mi SSE 3.5 mph - N/A   Scattered Clouds
1:54 AM 42.1 °F 37.1 °F 30.0 °F 62% 30.23 in 10.0 mi South 8.1 mph - N/A   Scattered Clouds
2:54 AM 42.1 °F 36.1 °F 28.9 °F 60% 30.19 in 10.0 mi South 10.4 mph - N/A   Partly Cloudy
3:54 AM 42.1 °F 36.1 °F 28.9 °F 60% 30.17 in 10.0 mi South 10.4 mph - N/A   Partly Cloudy
4:54 AM 45.0 °F 39.3 °F 30.0 °F 56% 30.14 in 10.0 mi SSW 11.5 mph - N/A   Partly Cloudy
5:54 AM 43.0 °F 38.2 °F 32.0 °F 65% 30.14 in 10.0 mi SSW 8.1 mph - N/A   Partly Cloudy
6:54 AM 42.1 °F 36.1 °F 34.0 °F 73% 30.14 in 10.0 mi South 10.4 mph - N/A   Mostly Cloudy
7:54 AM 45.0 °F 40.1 °F 37.0 °F 74% 30.12 in 10.0 mi SSW 9.2 mph - N/A   Mostly Cloudy
8:54 AM 50.0 °F - 39.0 °F 66% 30.07 in 10.0 mi SSW 16.1 mph 23.0 mph N/A   Mostly Cloudy
9:54 AM 55.9 °F - 42.1 °F 60% 30.04 in 10.0 mi SW 17.3 mph 25.3 mph N/A   Mostly Cloudy
10:54 AM 61.0 °F - 44.1 °F 54% 29.99 in 10.0 mi SW 15.0 mph 24.2 mph N/A   Mostly Cloudy
11:54 AM 66.9 °F - 46.0 °F 47% 29.95 in 10.0 mi SW 19.6 mph 27.6 mph N/A   Scattered Clouds
12:54 PM 73.0 °F - 48.9 °F 42% 29.90 in 10.0 mi SW 17.3 mph 26.5 mph N/A   Scattered Clouds
1:54 PM 75.9 °F - 50.0 °F 40% 29.84 in 10.0 mi SW 19.6 mph 29.9 mph N/A   Scattered Clouds
2:54 PM 80.1 °F - 50.0 °F 35% 29.81 in 10.0 mi SW 17.3 mph 29.9 mph N/A   Partly Cloudy
3:54 PM 82.4 °F - 50.0 °F 32% 29.76 in 10.0 mi SW 18.4 mph 28.8 mph N/A   Mostly Cloudy
4:54 PM 81.0 °F - 51.1 °F 35% 29.75 in 10.0 mi SW 19.6 mph - N/A   Mostly Cloudy
5:54 PM 80.1 °F - 53.1 °F 39% 29.73 in 10.0 mi SSW 19.6 mph 28.8 mph N/A   Mostly Cloudy
6:54 PM 77.0 °F - 53.1 °F 43% 29.72 in 10.0 mi SSW 13.8 mph - N/A   Mostly Cloudy
7:54 PM 77.0 °F - 54.0 °F 45% 29.75 in 10.0 mi WSW 9.2 mph - N/A   Overcast
8:29 PM 77.0 °F - 55.4 °F 47% 29.83 in 7.0 mi West 33.4 mph 50.6 mph 0.00 in Rain , Thunderstorm Light Thunderstorms and Rain
8:41 PM 62.6 °F - 57.2 °F 82% 29.79 in 3.0 mi Variable 3.5 mph 46.0 mph 0.08 in Rain , Thunderstorm Thunderstorms and Rain
8:54 PM 63.0 °F - 57.9 °F 84% 29.81 in 10.0 mi WSW 5.8 mph - 0.12 in Thunderstorm Thunderstorm
9:12 PM 60.8 °F - 59.0 °F 94% 29.78 in 10.0 mi South 9.2 mph - N/A   Mostly Cloudy
9:54 PM 60.1 °F - 57.9 °F 93% 29.78 in 10.0 mi South 5.8 mph - N/A   Scattered Clouds
10:54 PM 60.1 °F - 57.9 °F 93% 29.77 in 10.0 mi South 3.5 mph - N/A   Overcast
11:54 PM 60.1 °F - 57.9 °F 93% 29.75 in 10.0 mi SSW 6.9 mph - N/A   Scattered Clouds